Theta_e
300 299 299 298 298 298 298 298 297 297 297 296 296 295 294 294 294 293 292 292 292 292 292 290 289 291 291 291 290 290 290 291 290 290 289 290 289 289 290 290 290 289 288 291 289 289 290 292 294 294 292 293 294 295 296 297 297 298 298 298 298 298 298 296 293 292 294 297 297 297 297 298 297 296 294 297 295 296 296 297 298 298 299 299 299
299 298 298 298 297 297 296 296 296 296 295 294 293 292 291 291 290 291 292 289 291 291 290 289 289 290 291 289 288 286 288 290 287 289 288 288 288 289 288 288 288 288 287 289 289 288 288 290 292 292 290 291 292 292 293 294 294 295 295 295 296 296 297 295 293 292 291 294 293 294 295 294 294 296 294 294 295 294 294 294 295 295 296 297 298
297 297 297 296 295 294 293 293 293 292 292 291 291 290 290 289 289 290 290 290 289 289 289 290 289 289 289 288 288 287 287 286 285 287 287 287 288 287 286 286 287 288 288 289 289 288 288 288 290 291 290 289 290 291 290 290 291 291 292 293 293 293 294 294 293 291 290 291 293 292 292 292 293 294 293 293 294 295 295 295 295 296 296 296 296
295 295 293 292 292 291 291 291 291 290 289 289 289 288 289 288 288 289 289 288 290 289 289 289 288 288 288 287 286 285 286 285 286 285 288 288 288 287 287 286 286 286 287 288 288 288 288 288 289 289 288 288 289 288 289 288 288 288 289 290 290 291 291 291 292 292 291 290 291 291 291 291 292 293 293 293 293 294 294 295 295 295 295 296 296
292 292 291 290 290 290 289 289 289 288 288 287 287 287 287 288 288 288 289 289 288 288 288 287 287 288 288 287 287 286 287 286 286 286 286 286 287 287 286 286 285 286 286 287 288 287 287 287 288 288 287 287 288 287 287 287 287 287 287 287 288 289 289 289 290 291 291 289 290 292 292 291 292 292 292 291 292 292 292 292 293 293 294 294 294
290 290 290 289 288 288 287 287 287 287 287 287 287 287 287 288 288 287 288 288 287 287 287 286 286 286 285 286 286 286 286 285 286 286 286 285 285 284 284 285 284 285 285 286 285 285 286 286 287 287 287 287 287 288 288 287 287 287 286 287 287 287 287 287 288 288 289 290 290 290 291 290 290 291 291 288 290 290 291 291 292 292 292 291 292
289 289 288 288 288 287 287 287 287 287 286 286 286 286 287 286 287 287 286 286 286 286 285 285 284 284 285 285 285 286 286 285 285 285 285 284 284 283 283 283 284 283 284 284 285 285 285 285 286 286 286 287 287 287 287 287 287 287 287 287 287 287 287 287 287 287 287 288 289 289 289 290 290 288 290 290 289 290 289 289 289 291 290 290 290
289 288 288 288 288 287 286 286 286 286 286 285 286 286 286 286 286 286 286 286 285 284 284 283 283 283 284 284 285 284 284 284 284 284 284 284 283 283 283 283 283 283 283 284 284 284 285 285 285 286 286 286 286 287 287 287 287 287 288 287 287 287 287 287 286 286 286 287 287 287 288 288 288 289 290 288 288 288 288 288 286 288 289 289 289
289 288 288 288 287 287 286 286 286 286 285 286 286 285 285 285 285 285 285 285 285 283 283 283 284 284 283 284 284 284 286 286 285 285 285 285 284 284 283 283 283 283 283 283 283 284 284 284 285 285 286 286 287 288 288 288 287 286 287 287 286 286 286 286 286 286 286 286 286 287 287 286 287 287 287 286 286 286 287 288 287 288 289 288 290
288 287 287 287 286 286 286 285 285 285 285 285 285 285 285 284 284 284 284 283 283 282 282 283 283 284 284 284 284 285 285 285 286 289 290 286 284 284 283 282 282 282 283 283 283 283 283 283 284 285 286 286 286 287 288 289 289 288 287 287 287 286 286 286 286 286 285 285 285 285 285 285 286 286 286 286 287 287 287 287 286 287 288 288 289
287 287 286 286 286 285 285 285 285 284 284 284 284 284 284 284 283 283 283 282 283 283 283 283 282 283 283 284 283 284 284 284 288 290 291 291 286 283 282 283 282 282 282 282 282 282 282 282 282 283 284 284 284 287 288 288 288 289 289 289 288 287 286 285 285 285 285 285 285 285 285 285 286 287 286 287 287 287 287 287 287 287 286 286 284
286 286 285 285 285 285 284 284 284 283 283 283 283 282 282 282 282 282 281 281 281 281 282 282 282 282 283 282 282 283 283 286 290 290 290 291 290 286 283 283 283 282 282 282 282 282 282 282 282 283 282 283 284 284 285 286 287 288 288 288 288 289 289 287 285 285 285 285 285 285 285 285 286 287 287 287 287 287 288 288 287 286 286 285 286
285 285 285 284 284 284 283 283 283 282 282 282 282 282 281 281 281 280 280 280 280 281 280 281 281 281 281 282 282 282 281 286 288 289 289 290 290 288 283 281 282 281 281 281 281 281 281 281 282 283 283 283 283 283 283 283 285 286 287 287 287 288 288 289 289 287 287 286 285 285 285 286 285 286 287 287 288 287 287 287 287 287 287 285 286
285 284 284 284 283 283 282 282 282 281 281 281 281 281 281 281 280 280 279 280 279 280 279 279 280 280 280 280 281 281 281 284 288 288 288 289 290 289 281 281 281 280 280 280 281 280 281 281 281 281 282 282 282 282 283 283 283 284 284 285 285 285 287 287 287 287 287 286 285 285 286 287 286 287 288 289 287 286 286 286 286 286 286 285 286
284 284 283 283 282 282 281 281 281 280 280 280 280 280 280 279 279 278 278 279 278 278 279 278 280 278 280 280 280 281 282 285 287 287 288 288 288 287 281 281 280 279 280 279 280 280 280 281 280 280 281 281 282 283 283 284 284 284 283 283 283 284 284 285 285 285 285 286 286 286 286 287 287 288 288 289 288 287 286 285 285 285 285 286 286
283 283 282 282 281 281 281 281 280 280 280 279 279 279 278 277 277 278 277 277 276 277 278 277 277 278 278 278 279 279 280 284 286 287 287 287 287 283 280 280 279 279 279 278 279 279 279 280 280 280 281 281 283 285 285 284 283 282 282 282 283 283 284 285 287 287 286 286 286 285 286 286 287 287 287 287 287 287 286 286 286 285 284 283 283
282 282 281 281 281 280 280 280 280 279 279 278 278 278 277 276 276 277 275 275 275 276 276 277 277 278 277 277 277 278 278 282 285 286 286 287 285 280 279 279 279 279 279 279 279 279 279 280 280 281 281 280 283 285 285 285 283 282 282 282 283 283 283 284 286 287 287 287 287 287 288 288 288 288 288 289 287 287 285 283 283 284 282 280 281
282 281 281 280 280 280 279 279 279 278 277 277 277 276 275 275 275 276 275 275 275 275 277 277 277 276 276 276 277 276 276 280 284 284 285 285 285 280 279 278 278 278 278 279 279 279 280 281 281 280 280 280 283 285 285 284 282 282 282 282 281 281 282 283 283 284 286 286 287 287 287 287 288 288 288 288 288 287 284 281 283 283 281 281 279
281 281 280 280 279 279 278 278 277 277 276 276 275 275 275 275 275 274 274 274 275 276 276 275 274 274 274 275 278 276 274 277 282 283 284 284 283 279 279 277 277 277 278 278 279 279 279 280 281 281 281 282 284 285 285 284 282 282 282 281 280 280 281 282 282 282 283 283 283 283 283 284 284 284 285 287 287 286 285 284 283 282 281 281 281
281 280 280 279 279 278 277 277 277 276 276 275 275 275 275 275 274 274 274 273 273 274 273 273 272 274 275 275 275 274 274 273 278 282 282 283 283 280 277 276 276 277 278 278 278 279 279 280 281 282 283 284 284 285 285 285 283 282 282 281 280 279 282 282 283 283 282 282 282 282 282 283 283 284 284 284 285 285 285 285 285 284 282 282 282
280 280 279 279 278 278 277 277 276 276 275 275 276 276 275 274 274 273 272 272 270 270 269 270 272 273 274 274 274 272 274 274 276 280 281 282 282 281 277 277 278 278 278 278 279 279 279 280 280 282 283 283 284 284 285 285 285 283 282 281 281 282 284 282 282 283 282 282 282 282 283 283 283 283 283 284 284 285 285 286 285 285 284 283 282
280 279 279 278 277 276 276 276 276 276 276 276 275 275 276 274 274 273 271 269 268 269 269 271 271 272 273 272 272 272 274 276 275 278 280 281 281 282 279 278 280 279 278 278 279 279 279 280 279 281 283 283 284 284 285 285 285 282 282 284 285 285 283 283 283 282 282 282 282 282 282 282 283 283 283 284 284 284 285 285 285 285 285 285 284
279 278 277 276 276 275 275 274 275 275 274 276 275 274 274 273 272 271 270 268 268 269 271 271 270 270 270 272 272 273 273 273 277 276 278 280 281 281 281 280 282 280 279 278 278 279 279 280 280 281 283 283 284 284 284 285 283 282 284 285 285 285 283 282 282 282 282 281 281 281 281 282 282 282 283 283 283 284 285 286 285 285 285 286 286
277 276 275 274 274 274 273 273 274 274 274 274 274 273 272 271 271 269 269 269 270 270 271 270 269 269 269 270 271 272 272 272 274 276 277 279 280 280 281 281 281 280 279 278 279 279 279 279 280 283 283 283 284 284 284 283 282 284 284 284 284 283 282 282 281 281 281 280 280 280 280 281 282 282 282 283 283 284 285 285 286 286 285 285 285
275 274 273 273 273 273 273 274 274 274 273 272 272 272 271 269 269 270 269 269 268 268 268 268 268 268 268 268 269 270 271 271 271 273 277 277 279 280 280 281 281 281 278 278 279 279 281 282 282 282 283 283 283 283 282 282 283 283 283 282 282 281 281 281 280 280 279 279 279 280 280 281 282 282 283 283 284 285 285 285 286 285 285 285 285
274 273 273 273 273 273 273 273 273 272 272 272 271 270 270 270 270 269 267 266 265 265 265 266 266 267 266 266 268 269 270 270 270 270 274 276 278 279 279 280 279 280 280 279 280 281 282 282 282 282 282 281 280 279 279 279 281 281 281 281 280 280 280 279 279 278 278 279 279 279 280 281 282 282 283 283 283 284 284 284 284 284 285 284 284
273 273 273 273 273 273 272 271 271 270 269 269 269 269 269 267 267 267 265 264 263 264 264 265 265 266 267 268 269 271 271 272 271 271 274 276 276 277 278 278 279 279 279 279 279 279 280 280 280 281 281 280 280 279 279 279 278 278 279 279 278 278 278 278 278 278 279 279 279 279 280 281 282 282 282 282 282 283 284 283 283 283 283 283 282
272 272 273 273 272 271 271 271 269 269 269 268 268 267 267 266 265 265 264 263 262 262 262 263 264 265 266 269 270 271 271 272 272 273 274 276 276 277 277 277 277 277 277 278 278 279 279 280 279 277 276 276 276 276 275 276 277 277 276 277 277 277 278 279 280 279 278 279 279 280 280 280 280 281 281 281 282 282 283 283 282 282 283 282 280
272 272 272 271 270 270 269 269 268 267 267 267 266 266 266 266 264 263 262 262 262 262 262 263 266 265 268 270 271 270 271 271 272 276 276 278 277 276 276 276 276 277 278 280 279 278 278 276 274 274 273 273 273 273 274 274 274 274 274 275 275 276 277 277 276 276 277 278 278 278 279 279 280 281 281 280 281 281 283 282 282 282 282 281 278
271 271 270 269 268 268 267 267 267 266 266 265 265 266 270 272 270 265 265 272 275 276 274 268 269 270 271 271 272 271 270 272 276 278 278 278 278 278 278 278 279 278 279 280 278 275 274 272 272 272 272 272 271 271 271 271 272 272 273 274 275 275 275 275 275 276 277 278 278 278 278 279 278 279 279 279 280 281 282 282 281 281 279 278 277
270 269 268 267 267 266 266 266 266 266 266 265 265 264 262 265 273 274 273 273 274 274 275 275 275 275 273 269 272 275 275 276 277 277 277 277 277 278 278 278 278 278 279 276 273 272 271 271 271 271 271 271 270 270 270 270 270 270 271 272 274 274 273 273 274 275 276 277 278 278 278 278 278 279 278 279 279 280 281 281 280 279 278 277 276
268 268 267 266 266 266 266 266 266 265 265 265 264 263 261 260 261 269 271 271 273 274 274 273 273 274 274 274 272 271 274 276 276 276 276 276 276 277 277 277 277 277 277 276 271 270 270 269 269 269 269 268 268 268 269 269 269 269 270 270 270 271 271 271 272 273 275 277 277 276 277 277 278 278 278 279 279 279 280 279 279 278 276 274 273
267 266 266 266 265 266 266 266 266 265 264 263 262 261 259 260 260 259 264 270 271 271 271 272 272 273 273 274 274 274 274 274 275 275 275 275 276 276 276 275 275 275 274 270 269 268 269 269 268 268 267 266 267 267 267 268 268 268 269 269 269 269 270 271 272 273 275 276 275 275 276 277 277 278 278 279 279 278 279 278 278 276 274 272 270
266 265 265 265 265 265 266 266 265 264 264 263 261 260 259 259 257 258 258 258 260 266 269 270 271 272 272 273 273 273 273 274 274 274 274 274 275 275 273 270 273 273 272 267 267 266 267 266 266 266 266 266 266 266 266 266 267 267 268 268 268 268 269 270 270 272 274 275 275 275 276 276 276 276 276 277 278 278 277 277 276 274 272 271 269
264 265 264 265 265 265 265 265 264 264 263 261 260 260 260 260 260 259 257 258 259 259 258 260 267 271 269 269 271 272 272 273 273 273 273 273 273 273 270 266 265 265 266 266 266 265 265 265 265 265 265 265 265 265 265 265 266 266 266 266 266 267 267 267 268 270 272 273 273 274 274 274 275 276 276 276 276 276 275 275 274 272 271 269 269
264 264 264 264 264 265 264 264 263 262 261 259 259 259 259 260 259 258 259 260 258 257 258 258 260 267 269 268 269 270 271 272 272 272 271 272 272 271 263 263 263 264 264 264 264 265 265 264 264 264 264 264 264 264 264 265 265 265 266 265 265 266 266 266 267 269 270 272 272 272 273 273 274 275 276 276 276 275 274 273 272 271 270 269 268
263 264 264 264 263 264 263 263 261 261 262 261 260 258 260 259 260 258 257 256 258 258 257 257 257 259 264 264 266 268 270 270 270 270 270 270 270 265 262 263 262 263 263 262 263 263 263 263 263 263 264 263 263 263 263 264 264 265 265 265 265 265 265 266 267 268 269 270 271 272 272 272 273 274 274 274 274 274 273 272 270 270 269 269 269
263 263 263 263 263 262 261 261 261 263 262 260 258 258 258 257 257 258 258 257 259 259 257 257 262 258 258 259 264 265 266 267 267 265 266 266 264 262 261 262 262 262 262 262 262 262 262 262 262 263 263 263 262 263 263 263 263 264 264 264 265 265 266 266 267 267 268 269 270 271 271 271 272 273 273 273 273 272 271 270 269 268 268 269 268
262 263 263 263 263 262 261 260 261 260 258 258 258 259 258 258 258 257 256 256 256 257 258 256 256 258 258 259 258 263 265 262 260 259 260 260 261 261 260 260 261 261 261 261 261 261 260 261 261 262 262 262 262 262 262 262 263 263 264 264 264 264 264 264 265 265 266 267 268 270 271 271 271 272 272 271 271 271 270 269 269 268 266 265 264
261 263 263 263 262 262 260 260 259 258 258 257 256 257 257 258 257 257 255 254 255 256 256 257 257 257 258 258 260 262 262 260 258 257 258 259 259 260 260 260 261 261 260 260 261 261 260 260 261 261 261 261 261 262 262 262 263 263 264 264 263 263 264 264 264 265 265 266 267 269 270 270 271 271 271 270 270 270 269 268 267 265 265 264 264
261 262 262 263 262 262 261 260 259 257 257 258 257 257 257 258 257 257 255 256 256 257 257 256 255 255 258 263 265 265 260 257 256 256 257 257 258 258 258 259 260 259 260 260 261 260 260 260 260 260 260 261 261 262 262 262 263 263 263 264 263 263 264 264 264 264 264 265 266 268 269 270 270 270 269 270 270 269 268 267 266 265 265 265 264
261 261 261 262 262 260 259 259 258 260 258 259 257 256 257 258 256 255 256 256 257 257 255 256 255 255 261 264 264 265 259 256 257 257 256 256 256 256 257 257 257 257 258 258 259 259 260 260 260 260 260 260 261 261 262 262 263 263 263 263 263 263 263 263 264 264 264 264 266 267 268 269 269 270 269 270 269 268 267 266 265 265 264 264 264
260 261 261 261 261 260 260 259 258 257 256 257 257 260 259 257 256 257 257 257 256 256 255 255 255 256 258 263 262 263 257 255 258 256 255 256 256 257 256 256 256 256 256 257 257 258 258 258 259 259 259 259 260 261 261 262 263 263 263 263 262 262 263 263 263 263 263 264 265 267 268 268 268 268 268 268 268 267 266 265 265 265 264 264 264
260 260 260 261 260 260 259 259 258 258 257 258 258 258 257 256 256 255 254 254 255 256 255 254 255 256 256 258 259 257 254 254 253 253 254 256 256 256 255 255 256 256 257 257 257 256 257 257 257 258 258 259 259 260 261 262 263 263 263 262 262 263 262 262 262 263 263 264 265 266 267 267 268 267 267 268 267 266 265 265 264 264 264 263 263
260 260 260 260 260 259 259 258 258 257 258 258 257 256 258 255 254 254 255 254 256 255 255 255 255 255 256 254 254 253 254 253 255 255 255 255 255 255 255 255 255 256 256 257 257 256 256 257 257 257 257 258 259 260 261 262 263 263 263 263 262 262 262 262 262 263 264 264 265 265 266 267 266 266 266 266 266 266 265 264 264 264 264 263 263
260 260 260 259 258 258 259 257 258 257 257 257 256 254 254 254 254 255 255 255 255 254 254 254 254 254 255 253 253 255 254 252 253 254 255 255 254 255 254 255 255 255 255 256 256 256 257 257 257 257 257 257 258 259 259 260 262 262 263 263 262 262 263 263 263 263 264 264 264 265 266 266 266 266 266 266 266 265 264 264 264 264 263 263 263
259 259 259 259 259 259 259 258 258 257 257 256 255 255 254 253 253 254 256 256 254 256 254 253 253 253 253 253 253 252 253 253 253 254 254 254 253 254 253 254 255 255 255 256 255 256 256 256 257 257 257 257 258 258 259 260 261 262 263 263 263 263 263 263 263 263 263 263 264 264 265 265 265 265 265 266 265 265 264 264 263 263 262 262 262
259 259 260 260 260 259 259 258 258 259 257 257 256 255 255 254 254 255 253 254 254 254 253 253 252 252 253 253 253 253 253 253 253 254 254 253 253 253 253 252 254 255 255 255 255 255 256 256 256 256 257 257 258 258 259 260 261 262 263 263 263 263 263 263 262 263 263 263 263 263 264 264 264 264 264 264 264 264 264 263 263 263 262 262 262
259 259 259 259 259 259 258 259 258 258 258 257 255 255 255 254 254 253 253 253 253 253 252 252 252 251 251 252 252 252 253 254 253 252 252 252 252 252 253 252 254 254 254 254 255 255 256 256 256 256 256 257 257 258 258 259 260 262 263 263 264 264 264 263 262 262 262 262 262 263 263 262 262 263 263 263 263 264 263 263 263 263 263 263 262
259 259 259 259 259 258 258 258 258 257 256 255 255 253 253 254 252 253 252 252 251 252 251 251 252 252 251 252 252 252 252 252 252 252 252 252 252 251 252 252 251 252 252 253 254 255 255 255 255 256 256 256 257 257 258 259 260 261 263 264 265 264 264 263 263 263 262 261 261 262 262 261 260 261 261 262 262 263 263 262 262 262 262 262 261
258 258 259 259 259 258 258 257 257 256 256 256 255 254 254 253 254 253 252 252 253 252 252 251 251 250 251 251 252 252 252 252 253 252 252 252 252 251 252 252 253 252 252 252 253 253 254 254 255 256 256 257 257 257 257 258 259 260 262 264 264 264 264 263 262 262 262 261 260 261 261 261 259 259 260 260 260 261 261 261 261 261 261 261 261
Wind_Speed
7 6 7 7 8 7 6 7 7 7 7 7 7 6 5 5 5 4 5 5 5 6 6 5 4 5 5 5 6 5 4 4 4 4 4 5 5 4 4 5 5 5 4 5 4 3 4 5 6 6 4 5 5 6 6 7 6 6 7 7 8 7 8 10 14 19 19 10 8 12 9 8 13 7 10 11 9 9 10 11 12 12 12 12 13
7 7 6 7 7 7 7 6 7 7 8 7 7 6 5 5 4 5 6 4 5 5 5 4 4 5 6 5 5 4 3 3 4 5 4 5 4 3 4 4 4 4 4 5 5 4 4 5 7 7 5 5 7 7 7 7 6 7 7 7 8 8 6 9 11 13 20 19 11 7 10 5 14 10 9 12 13 9 10 10 8 10 11 12 12
6 7 7 7 7 7 7 7 7 8 9 7 7 6 5 5 5 6 6 5 4 4 4 5 6 6 6 5 5 4 4 4 4 4 3 3 3 4 3 3 4 5 5 5 5 4 5 5 7 7 5 5 6 7 6 7 6 7 9 7 9 10 9 9 10 14 18 20 18 13 11 8 10 14 9 7 10 12 14 12 11 11 11 11 12
7 8 8 8 7 8 8 7 9 8 8 6 7 5 6 6 5 6 5 5 6 5 5 5 6 6 6 5 5 4 4 3 4 3 3 2 3 3 4 3 3 4 4 5 5 5 5 6 7 6 6 6 7 7 7 6 7 8 8 8 9 11 10 8 10 12 14 18 21 17 12 12 12 10 9 9 11 13 12 12 11 13 13 12 12
8 8 8 9 8 8 8 7 8 7 7 6 7 6 6 6 5 5 6 7 5 6 6 5 5 5 5 4 3 3 2 2 3 3 3 2 1 2 3 3 4 4 4 4 5 5 5 6 8 7 6 7 9 7 8 8 8 7 8 9 9 9 9 8 9 10 13 16 20 19 16 13 13 13 8 10 12 11 10 12 12 14 14 12 10
8 9 8 10 9 8 7 7 7 7 7 7 7 7 6 5 6 6 5 6 6 6 6 5 5 4 4 2 2 2 2 1 1 1 1 2 2 2 2 3 4 4 4 5 4 5 5 7 7 7 7 8 10 10 9 10 9 8 9 9 10 9 10 10 9 10 12 15 16 20 18 18 16 13 9 6 11 15 12 12 12 12 12 12 11
8 9 8 9 9 7 7 6 6 7 7 7 6 5 5 6 6 6 5 6 7 6 5 5 4 4 3 2 2 1 1 2 2 2 3 3 3 3 4 4 4 4 4 5 5 5 6 6 7 7 8 8 9 11 11 10 10 10 10 10 11 10 11 11 9 10 12 14 16 16 17 16 15 18 13 7 8 10 13 15 17 13 8 9 12
9 9 9 9 8 8 6 6 7 7 7 6 5 5 6 7 7 6 6 7 7 5 5 4 2 1 1 1 1 1 2 3 4 4 4 4 4 4 4 4 5 5 5 5 5 6 6 6 7 7 8 8 9 10 10 11 11 12 10 8 9 11 12 11 10 10 11 13 14 15 13 16 15 13 12 10 11 10 8 10 14 15 15 12 10
10 9 9 9 8 7 7 6 6 7 7 6 6 6 7 6 6 7 6 6 5 4 3 1 1 1 1 2 3 3 4 4 3 4 4 5 4 4 4 4 5 6 6 6 6 6 6 6 6 7 9 12 15 15 15 14 11 13 14 10 9 10 12 12 11 11 11 12 15 14 14 14 15 16 15 12 11 11 11 9 13 13 14 15 15
10 9 9 8 8 7 7 7 7 6 7 7 6 6 7 7 7 6 5 4 3 2 2 1 1 2 3 4 4 4 4 3 5 9 7 4 4 4 5 4 5 5 6 7 6 5 6 7 7 11 13 15 16 17 17 17 17 14 13 13 13 12 12 13 13 11 12 13 14 13 15 16 16 14 15 14 13 11 13 12 14 13 13 14 14
8 9 9 7 8 7 8 7 7 8 6 6 6 7 7 6 6 5 4 3 2 1 1 2 3 3 4 4 4 4 3 3 9 10 10 10 5 4 4 5 4 5 6 7 8 8 7 6 6 8 9 10 11 15 17 18 17 19 20 20 17 14 13 14 14 13 13 13 14 14 15 18 17 15 13 14 11 13 14 13 13 13 12 13 17
10 9 8 7 7 7 7 7 8 7 7 7 6 6 6 6 5 4 3 3 2 2 3 3 3 3 3 3 4 4 4 7 9 9 10 11 9 6 4 4 5 5 5 6 7 7 9 9 7 4 5 7 10 10 13 16 17 18 19 19 19 19 17 14 14 14 14 16 16 16 16 17 18 17 16 15 16 15 15 15 15 15 16 16 14
10 10 7 8 7 6 6 8 8 7 6 6 5 5 5 5 4 4 4 2 2 3 3 3 3 3 3 4 4 4 4 6 9 10 11 11 11 8 4 4 5 5 5 6 7 8 8 9 10 7 4 9 9 10 11 13 15 18 18 18 18 18 19 20 19 16 15 16 17 19 16 18 19 17 16 17 17 20 18 18 17 16 14 15 14
9 9 8 7 7 6 6 7 8 6 6 6 5 5 5 5 4 3 3 3 3 3 3 3 3 3 3 3 4 4 4 6 10 11 10 11 11 8 4 4 5 5 5 6 6 7 8 9 10 11 9 7 6 9 11 13 14 14 12 12 12 13 15 16 16 18 17 14 16 17 18 16 18 18 18 17 19 19 19 19 15 16 19 20 16
9 9 9 7 7 7 7 7 7 6 6 5 5 5 5 4 4 3 2 2 2 2 3 3 3 3 4 4 4 4 4 8 10 11 11 12 14 8 5 5 5 4 4 5 6 6 7 8 8 10 11 10 8 11 12 13 15 15 15 15 14 13 12 11 10 12 12 12 14 16 17 16 16 18 17 17 18 18 16 18 17 17 16 16 17
10 9 9 8 7 6 7 7 7 6 6 6 6 5 4 3 3 2 2 3 2 2 3 2 3 4 4 3 3 4 4 7 9 10 12 14 13 6 5 5 6 6 5 4 5 5 5 7 8 10 11 11 14 22 21 17 14 16 17 16 16 14 12 11 13 15 14 14 15 16 16 20 26 23 22 20 18 17 18 17 16 17 19 19 16
10 9 9 8 7 6 6 7 7 7 6 6 6 5 4 3 3 2 3 3 3 3 3 3 3 3 4 3 2 4 4 6 10 12 14 16 9 5 5 6 6 7 7 5 4 5 5 6 7 10 12 12 18 25 24 23 14 15 15 17 16 16 14 13 16 23 25 29 32 34 35 35 34 35 37 34 26 21 15 18 18 15 17 17 16
9 9 9 8 7 6 5 6 7 6 6 6 5 3 2 2 1 2 2 2 3 3 3 3 3 3 3 3 3 3 4 7 11 13 14 16 11 7 6 7 8 7 8 6 5 4 5 10 11 11 13 14 23 27 26 20 14 13 14 16 18 18 15 14 13 15 20 25 25 25 27 29 31 32 32 32 31 25 17 20 18 15 18 16 16
10 10 9 8 7 6 6 5 6 6 6 5 4 3 2 1 0 2 1 1 2 3 3 3 3 3 2 2 4 3 4 6 10 13 15 16 11 6 7 7 9 8 8 9 8 7 6 8 13 16 16 19 28 26 28 22 15 15 14 15 16 17 15 14 15 18 18 19 17 16 16 19 18 16 18 28 28 25 18 18 16 16 18 17 16
8 8 8 8 7 6 5 6 6 6 6 4 3 2 1 1 1 1 2 1 2 3 3 3 2 2 1 1 3 3 3 4 6 16 16 16 17 9 6 7 9 11 10 9 11 11 8 7 10 18 23 25 26 28 27 28 19 15 14 13 14 18 15 16 16 17 17 17 18 17 17 16 14 15 14 14 15 16 17 15 15 15 14 16 16
9 9 8 8 7 7 5 5 7 5 4 3 3 2 2 2 1 1 1 3 2 3 3 2 0 0 1 2 2 4 4 5 7 17 17 17 17 14 5 7 8 10 10 11 9 10 11 10 10 18 25 26 26 28 28 28 26 17 13 12 13 19 23 16 19 23 18 17 18 17 15 13 13 12 12 12 13 13 14 15 15 14 14 13 13
9 9 9 8 7 7 6 5 5 5 4 4 4 2 2 2 1 1 2 2 3 2 1 1 1 1 1 2 3 4 5 9 7 11 16 16 16 18 9 7 10 10 11 9 10 9 11 10 11 19 28 28 28 29 30 28 29 17 16 24 30 29 21 16 15 14 14 14 15 15 15 14 12 12 12 12 12 13 14 14 14 12 12 13 14
9 8 8 8 7 7 6 5 5 4 4 3 3 3 2 2 2 2 2 3 3 2 0 1 2 3 3 5 4 4 5 6 12 8 12 15 16 16 17 13 18 11 10 11 10 11 10 11 12 22 29 30 29 30 28 30 23 16 28 28 27 31 25 12 12 11 12 13 13 14 15 14 13 13 11 13 13 13 13 13 13 13 12 12 13
8 8 8 7 7 6 5 4 4 4 4 3 3 3 2 1 1 2 3 3 2 1 3 4 5 7 7 6 6 6 5 5 7 11 10 15 16 17 16 18 18 12 11 9 9 10 11 11 16 29 29 29 29 28 28 26 19 26 27 28 29 26 14 12 11 12 13 14 13 14 14 13 12 13 12 12 14 15 15 14 14 14 12 12 13
8 8 8 7 6 5 5 4 5 4 3 3 4 2 0 1 3 3 2 2 0 4 4 5 6 5 5 6 6 6 6 5 4 6 12 13 16 16 17 19 19 20 13 10 10 11 17 26 28 27 28 28 29 27 21 20 25 27 28 28 24 12 11 10 11 13 12 13 14 13 13 14 14 13 13 16 17 16 14 12 11 12 12 12 12
9 8 8 7 6 6 6 5 5 4 5 4 2 1 2 3 4 4 2 1 4 5 5 5 5 5 4 4 5 6 6 5 5 5 6 7 8 14 18 18 18 19 18 15 21 24 24 24 27 26 22 20 17 14 14 17 26 28 27 23 12 11 11 12 13 11 12 13 13 14 14 14 13 14 16 15 14 13 12 12 12 12 11 11 10
9 8 8 7 6 6 5 4 4 5 4 3 1 1 2 4 3 1 2 5 4 4 3 4 5 5 5 5 5 6 6 6 5 4 4 6 6 8 9 9 14 15 11 9 11 12 15 16 15 20 18 26 24 21 19 19 15 12 11 11 10 11 11 11 12 12 13 12 14 14 14 13 13 14 14 14 15 13 12 12 13 13 11 11 10
9 9 8 7 6 6 5 6 6 4 3 2 2 2 3 3 1 1 3 2 3 3 4 4 4 5 5 5 5 5 6 6 6 7 8 8 8 8 7 8 9 9 10 10 12 13 12 12 13 10 11 11 11 10 10 10 10 10 10 9 11 11 14 16 15 11 11 11 13 13 12 13 14 14 14 14 13 13 12 12 13 13 11 10 9
8 8 7 7 6 4 5 5 5 5 4 3 3 3 2 1 1 2 1 2 1 1 1 1 2 1 2 5 6 6 5 6 7 11 12 15 13 11 10 10 10 9 13 20 14 10 9 8 9 10 9 10 12 9 10 9 12 10 9 9 10 11 9 10 12 13 13 11 12 12 14 13 12 11 13 13 13 13 12 12 11 10 10 8 9
9 8 7 7 7 7 6 5 4 4 4 5 4 2 4 5 2 1 2 2 2 1 3 1 1 1 2 3 4 5 6 7 14 18 18 18 18 19 18 19 19 16 19 23 14 8 8 9 8 9 10 10 12 13 12 13 13 13 14 14 13 11 11 11 12 13 14 13 12 10 13 11 13 12 13 14 14 13 12 12 11 10 9 9 9
8 7 7 7 7 7 6 6 5 5 4 4 4 5 3 5 8 10 9 8 6 6 5 5 7 7 5 2 4 10 12 14 16 17 18 18 18 18 18 18 19 19 20 14 9 9 9 8 10 10 9 8 9 11 12 11 13 14 14 14 10 11 15 13 14 15 16 14 13 12 12 13 13 14 13 13 14 14 12 10 9 9 8 7 7
10 9 7 7 7 7 6 6 5 5 5 4 5 5 5 5 5 8 9 7 6 4 5 6 7 7 8 7 6 4 9 13 16 17 18 19 19 19 19 19 18 17 16 15 8 8 8 9 10 9 9 9 10 10 11 11 13 13 14 15 16 14 15 16 18 17 14 13 12 16 12 12 13 14 14 13 13 12 11 11 10 9 7 4 3
9 8 8 7 7 7 6 6 5 5 6 6 5 4 5 6 7 4 6 4 3 4 4 5 6 7 8 8 9 9 11 13 16 17 18 18 19 19 19 18 17 17 15 9 6 6 7 8 9 9 10 9 10 10 9 11 11 13 11 13 15 16 16 17 19 16 13 13 14 13 13 14 13 13 12 13 12 12 12 11 10 7 4 2 3
7 8 9 9 8 6 6 5 6 5 4 5 6 6 5 6 4 3 2 3 2 3 2 4 6 8 8 9 9 11 12 13 15 16 17 17 18 19 18 12 15 16 14 8 8 8 8 7 7 8 8 9 9 10 11 11 11 11 11 12 12 13 13 14 14 15 14 14 12 13 14 12 13 13 13 10 12 11 11 10 8 6 4 3 3
7 7 9 7 5 5 5 5 5 6 6 6 6 6 5 4 4 4 4 3 1 1 4 4 6 7 6 6 9 12 12 14 15 15 16 17 18 19 16 9 10 9 8 6 7 7 7 8 8 9 9 10 10 11 11 11 11 11 12 13 12 12 14 15 14 15 15 13 13 12 13 14 13 13 11 12 12 11 10 9 7 5 4 4 3
7 6 6 7 5 5 5 5 5 6 6 7 6 4 5 4 5 4 3 2 3 1 1 2 1 4 8 9 11 12 13 14 14 15 15 16 16 17 9 8 7 7 7 7 7 7 6 7 7 8 9 8 9 9 10 11 11 11 12 12 13 13 13 14 15 14 15 13 13 15 14 13 13 12 11 12 12 11 8 6 5 5 5 4 4
7 7 7 6 5 5 6 6 6 6 5 6 6 4 4 4 4 3 5 4 3 2 2 1 2 3 3 3 8 11 14 13 13 13 14 14 15 9 5 6 6 7 7 7 7 7 7 7 8 8 8 7 8 8 9 10 11 11 11 11 12 13 11 12 14 15 15 14 13 12 13 13 12 12 12 11 11 8 7 6 5 5 5 5 4
8 7 8 8 8 7 7 7 7 7 6 5 5 5 3 3 4 4 5 3 3 3 1 0 1 1 3 4 7 5 8 10 10 9 9 10 8 6 6 5 6 6 7 7 7 7 7 8 8 8 8 8 9 9 9 9 9 10 10 11 11 10 17 15 17 15 14 14 12 13 11 12 12 12 12 11 10 8 7 6 6 5 5 6 5
7 7 10 11 9 7 7 7 7 7 6 5 4 5 6 4 3 3 3 3 2 2 2 1 1 1 1 1 3 4 6 5 5 6 6 5 5 4 3 4 5 6 6 6 7 7 7 8 8 8 8 8 8 9 8 9 10 10 10 11 12 12 13 12 12 13 13 13 14 11 11 11 10 10 10 10 9 8 7 6 6 6 6 6 6
9 9 10 14 8 9 7 8 7 7 7 6 6 5 4 5 4 4 4 3 1 1 1 1 0 0 1 1 1 2 4 4 3 3 4 4 4 4 3 4 5 5 6 7 7 7 8 8 8 8 9 9 9 9 9 9 9 10 10 10 11 12 12 11 11 13 11 12 13 12 11 10 11 10 9 7 8 7 7 7 6 6 5 5 5
7 8 8 9 7 7 6 7 7 7 6 6 6 6 6 6 5 6 3 2 2 1 1 1 0 1 0 2 6 5 3 1 2 3 4 3 4 3 4 3 4 5 6 6 7 7 7 7 8 8 8 9 9 9 9 9 10 9 10 10 10 10 11 12 12 12 11 13 12 12 12 11 10 10 10 8 8 7 6 6 5 6 5 5 5
7 6 7 7 8 6 6 7 7 7 5 7 6 6 7 6 4 4 5 3 4 3 1 0 1 1 1 4 4 6 2 0 1 4 3 3 3 3 3 4 4 4 5 5 6 7 7 8 8 8 9 9 9 10 9 10 10 10 10 10 10 11 10 12 12 13 13 12 12 11 11 12 11 10 9 9 7 6 6 5 5 5 5 5 5
11 11 8 8 7 8 8 7 6 6 6 7 7 6 7 5 4 5 3 4 2 2 1 1 1 0 0 2 3 4 1 1 3 3 3 3 3 4 3 4 5 5 5 5 5 5 6 6 7 7 7 8 8 9 9 9 9 10 10 10 10 11 11 11 11 11 11 12 12 13 13 12 11 9 8 8 7 6 5 5 4 5 5 5 5
6 7 6 6 6 5 5 5 6 7 6 7 6 7 6 5 4 4 4 3 3 2 2 2 1 1 1 2 1 1 1 2 3 4 3 4 4 4 5 5 5 5 5 5 5 5 5 6 6 7 7 7 7 8 8 8 8 9 9 10 11 11 11 10 11 11 11 11 12 12 11 11 10 9 8 8 7 6 5 4 4 4 4 4 5
8 9 7 6 6 5 5 4 5 6 8 7 6 6 7 5 4 5 4 4 5 3 3 2 2 1 2 1 1 2 3 4 4 4 4 5 4 5 5 5 5 5 5 6 5 5 5 6 6 7 8 8 7 8 8 8 8 7 7 8 9 10 10 11 12 11 11 11 11 11 10 9 10 9 8 7 6 5 5 4 4 3 4 4 4
7 8 8 7 7 6 6 5 7 6 7 8 8 8 6 6 6 5 6 5 5 4 4 3 2 2 4 3 3 5 5 3 5 3 5 4 5 5 5 5 5 5 5 5 5 5 6 5 6 7 8 8 9 8 8 8 8 7 7 7 7 8 9 9 11 11 10 10 10 9 10 9 9 8 9 7 5 5 4 4 4 3 3 3 4
8 8 8 7 8 7 7 6 5 7 7 7 7 7 7 7 7 5 6 7 4 6 4 4 4 4 5 4 4 4 6 4 4 4 4 5 4 5 5 5 5 5 5 5 4 5 6 6 6 7 7 8 8 9 9 8 8 7 7 7 7 8 8 9 10 10 10 10 10 9 9 9 9 8 8 7 5 5 4 4 3 3 3 3 3
7 7 6 6 7 7 7 6 7 7 7 8 7 7 6 6 4 5 6 5 4 4 3 3 4 5 5 4 4 5 4 4 4 6 5 6 5 6 5 4 5 5 5 6 5 5 5 6 6 7 7 8 8 8 8 9 8 8 7 7 7 9 12 14 10 10 10 10 9 9 9 8 7 7 7 6 5 5 4 4 3 3 3 3 4
7 8 8 8 8 8 8 8 7 7 7 6 6 6 6 4 4 4 4 4 4 4 4 5 5 4 5 6 5 6 6 6 5 5 5 6 5 5 6 4 5 5 5 6 6 5 6 6 6 7 7 8 8 8 8 9 9 9 9 7 9 17 17 17 13 11 14 11 9 9 8 7 7 7 6 5 5 4 4 3 3 4 3 4 4
9 11 11 8 9 8 7 6 6 6 6 6 6 5 4 5 4 5 5 5 4 4 5 5 6 6 6 5 7 6 4 5 6 6 6 6 5 5 5 5 5 5 5 5 5 5 5 6 6 7 7 7 8 8 7 8 8 10 9 9 18 20 18 19 18 18 14 9 9 8 8 7 7 6 5 5 5 4 4 4 3 3 3 4 4
7 8 6 7 8 7 8 7 7 7 7 7 7 7 6 6 6 6 6 6 6 7 6 6 7 6 6 7 7 6 5 5 6 6 6 6 5 5 5 5 5 4 5 5 5 5 5 6 6 7 7 8 8 8 7 8 8 9 14 19 18 16 14 15 12 16 20 13 8 8 7 7 7 7 6 5 4 4 4 4 4 3 3 3 3
Wind_Direction
112 115 112 110 109 110 110 102 98 97 91 88 91 89 85 84 86 110 90 78 85 78 79 82 85 90 78 65 63 51 49 32 31 46 45 30 17 17 7 16 3 334 339 324 332 329 312 302 297 294 301 299 290 294 293 289 288 279 276 276 275 272 276 282 281 282 287 269 259 284 279 278 283 246 256 271 266 262 257 253 260 262 263 265 268
118 118 110 112 112 112 104 98 98 94 92 87 87 83 76 83 96 78 82 73 83 89 90 93 86 72 65 55 53 50 40 38 26 42 34 23 2 5 1 356 347 322 333 315 316 319 311 304 297 298 297 286 285 283 280 283 277 280 272 268 272 269 248 262 269 280 285 297 282 249 275 256 279 270 256 271 279 267 262 264 256 257 262 265 265
115 115 113 111 106 103 102 99 98 96 95 92 93 92 91 85 79 87 82 76 62 76 81 74 68 67 64 55 49 37 26 17 17 39 26 21 359 339 341 343 332 325 325 312 309 314 313 298 291 294 299 294 281 276 279 274 269 266 268 262 264 264 258 247 265 275 282 287 290 292 282 271 255 283 275 257 265 275 278 272 270 268 259 255 260
115 110 107 102 104 101 98 101 97 97 97 102 103 99 94 88 88 89 89 80 71 51 52 57 62 66 64 50 46 37 23 18 18 36 29 18 359 338 330 333 320 309 301 302 308 312 303 304 293 295 299 294 285 283 277 269 269 267 266 262 257 263 257 252 243 260 276 287 292 292 289 291 282 268 276 271 272 274 272 276 270 267 267 263 261
112 110 112 108 101 101 99 98 102 101 106 107 100 94 88 89 83 86 85 74 64 62 47 42 55 56 62 61 49 32 19 33 36 17 8 19 17 351 338 335 327 314 303 297 300 301 298 290 292 299 300 296 291 285 281 280 273 267 267 269 265 263 266 254 253 253 265 274 284 289 291 285 280 284 277 284 282 269 271 270 271 272 271 267 262
115 113 112 108 105 100 101 100 102 106 103 93 87 84 85 82 84 71 77 80 67 60 63 43 49 50 54 62 67 30 16 35 45 34 20 19 29 8 346 333 318 314 309 304 300 297 293 292 293 292 293 286 285 285 283 280 283 277 272 273 271 270 271 267 258 259 261 267 274 287 291 293 294 283 285 252 278 291 290 281 274 269 276 279 266
117 113 109 108 106 104 104 105 104 96 87 82 78 77 76 75 71 70 64 73 68 59 48 52 25 48 35 55 55 42 36 40 41 39 36 31 15 360 341 334 321 315 303 300 298 295 289 285 286 284 280 278 281 285 290 290 285 281 277 278 279 280 275 274 270 265 265 273 276 273 283 285 284 293 296 283 262 270 289 296 293 286 265 261 279
118 115 114 109 108 109 105 103 94 89 86 85 87 85 78 70 67 61 59 57 56 55 53 52 18 45 48 87 47 73 54 41 35 29 18 12 5 347 338 329 325 317 311 304 298 291 285 282 278 279 276 277 279 284 287 290 292 289 285 277 280 283 281 279 277 274 275 274 271 280 277 284 289 279 288 292 286 281 263 274 283 294 298 289 272
118 118 115 113 114 115 107 97 93 90 91 91 85 80 76 74 67 61 56 51 45 39 40 58 81 23 14 54 43 43 43 24 22 8 357 348 355 344 335 326 316 309 301 295 289 287 286 279 278 280 280 279 279 281 282 283 292 296 295 293 285 280 285 286 284 280 277 276 280 277 280 281 281 289 296 291 287 286 291 282 281 284 289 292 290
122 120 116 118 118 113 108 105 103 102 95 91 86 81 76 72 70 65 59 52 40 18 5 334 8 33 30 22 33 28 16 6 347 346 349 345 340 330 320 310 305 301 301 301 295 285 283 287 286 283 286 288 288 288 288 288 284 281 287 296 297 294 290 291 289 286 284 284 280 284 285 283 286 288 289 286 291 290 288 287 283 287 287 283 281
120 120 119 120 119 116 111 108 105 96 97 91 84 79 76 76 74 70 63 56 48 16 1 6 4 359 20 19 10 8 355 346 341 345 342 338 336 322 309 303 295 292 296 297 303 307 300 290 287 293 292 291 290 290 294 295 295 293 291 288 287 288 295 294 291 293 291 281 283 283 282 286 287 289 286 294 291 292 291 289 288 289 286 291 293
121 116 117 118 115 114 113 111 100 95 89 86 86 87 86 83 79 79 71 50 24 25 32 15 0 353 355 7 4 347 340 330 332 333 333 332 331 325 313 306 301 299 297 300 301 305 306 307 304 299 294 297 304 305 302 300 299 297 295 294 292 288 283 284 293 295 292 291 289 286 288 286 291 293 295 296 297 295 291 291 289 287 286 280 277
122 118 118 115 114 110 111 106 102 97 94 95 94 90 95 89 81 71 57 34 30 38 11 12 350 339 355 350 339 332 325 319 322 324 328 331 329 329 314 302 306 304 307 306 306 310 313 313 316 316 315 313 312 308 309 308 303 299 296 293 290 289 293 290 283 281 287 284 287 287 287 292 290 289 293 295 295 291 291 285 281 276 272 275 278
121 121 118 117 118 116 111 107 104 104 103 99 100 100 93 85 73 64 52 28 30 6 4 354 336 339 331 324 315 316 318 314 319 322 323 323 326 343 325 317 311 306 308 307 308 314 315 319 318 319 323 322 312 310 310 308 308 308 309 308 306 301 300 296 290 284 281 282 284 285 287 286 287 289 290 291 292 288 286 282 282 280 279 274 277
124 127 123 121 118 117 115 112 112 111 109 108 103 89 81 73 61 47 60 38 24 355 339 337 323 319 316 318 320 313 309 313 319 323 327 340 349 354 331 322 314 310 309 307 308 313 318 316 314 312 316 319 317 317 315 315 318 319 318 313 307 301 292 290 293 293 289 283 282 281 285 286 285 288 292 291 288 289 290 294 295 293 293 294 287
129 128 125 125 123 125 126 125 119 119 112 103 93 85 75 76 66 29 43 8 360 6 342 340 307 314 306 312 316 306 306 319 328 330 345 354 355 343 330 324 324 320 318 320 315 315 312 312 314 314 315 314 319 324 326 325 319 314 311 307 305 300 291 283 275 280 283 288 288 288 288 289 290 290 290 290 290 289 289 288 286 282 284 287 285
136 133 128 128 126 129 135 130 123 113 109 100 92 85 75 48 35 52 44 6 357 335 306 296 290 299 302 308 308 303 317 330 345 352 356 354 356 346 335 330 327 326 325 324 315 310 309 312 319 323 319 317 321 323 324 325 316 311 307 305 304 304 304 308 303 300 299 297 295 293 292 292 292 292 292 288 285 289 288 286 281 283 285 286 283
140 136 134 133 130 129 131 126 120 114 106 102 98 90 75 63 41 38 54 337 324 291 293 298 296 286 286 302 307 323 328 338 354 359 0 360 360 349 338 337 328 325 320 319 315 314 315 330 335 324 318 315 320 322 323 325 318 312 307 308 309 308 308 312 309 306 297 294 286 283 282 283 283 284 283 284 283 283 280 281 281 282 278 277 278
147 143 138 133 127 124 122 117 114 112 103 98 99 88 79 81 18 30 3 332 283 288 289 277 281 292 278 285 319 5 357 347 350 3 4 2 359 354 348 336 328 326 327 326 327 327 324 324 323 324 320 317 319 321 322 323 317 314 311 307 306 305 306 308 305 304 307 305 299 295 287 283 281 277 276 277 276 276 271 270 276 274 276 276 272
140 130 126 123 121 119 120 112 104 101 100 91 87 106 101 66 33 16 331 312 284 288 272 271 270 303 321 354 9 17 24 351 354 5 5 4 1 358 349 340 334 329 331 332 327 323 321 315 319 322 320 319 319 319 319 320 318 311 308 305 303 301 303 301 303 305 300 298 296 293 289 287 283 279 276 274 271 268 270 266 265 266 266 270 269
134 131 124 119 117 116 110 105 103 98 107 110 97 78 80 80 24 14 314 311 298 284 277 269 270 311 32 28 44 12 24 15 7 7 2 2 360 359 348 342 331 328 325 324 321 320 322 323 316 320 320 319 318 318 318 317 316 313 309 299 294 300 309 309 306 301 297 294 295 293 291 288 288 285 282 276 273 271 269 264 259 255 258 265 270
133 128 124 120 117 110 106 97 96 98 92 94 79 75 56 64 35 337 294 271 266 263 262 234 173 134 62 58 47 28 19 22 7 5 1 359 358 357 354 343 337 328 321 316 317 315 318 315 313 316 318 318 318 318 317 316 316 314 302 305 310 312 313 305 298 295 290 293 293 293 295 294 293 290 285 282 281 281 278 275 267 258 252 256 261
130 125 120 117 113 109 103 101 96 99 88 86 98 92 57 40 354 319 271 264 244 238 235 351 39 57 52 27 29 28 17 16 4 359 356 358 356 353 347 341 336 332 319 316 319 315 312 307 302 311 316 317 316 316 315 315 315 307 311 314 314 316 314 300 294 295 297 300 299 297 298 298 296 294 289 292 292 288 286 282 278 268 262 263 261
125 120 118 115 111 107 104 97 94 90 95 95 99 92 50 12 298 267 251 238 234 39 24 21 26 24 17 3 7 9 4 6 352 354 353 355 352 347 343 340 337 330 323 311 311 307 306 306 311 315 315 315 315 315 316 316 312 314 317 319 321 318 309 306 302 305 303 301 300 301 301 299 296 295 293 294 294 294 291 286 281 279 276 270 268
125 122 121 119 112 113 103 98 90 94 95 101 85 92 124 205 237 243 235 236 102 57 29 33 30 16 11 3 351 345 345 345 348 345 351 349 349 344 342 337 333 328 319 307 302 304 310 313 314 314 315 317 318 319 316 314 318 322 322 321 317 312 315 310 309 307 301 302 302 300 299 302 300 294 296 297 295 292 289 286 279 274 269 266 266
125 125 123 120 122 117 111 99 92 80 70 70 87 126 186 213 209 222 209 103 62 59 38 29 24 15 7 358 347 337 336 341 340 332 331 332 334 340 335 331 327 324 319 312 313 313 314 314 315 315 315 318 322 322 323 321 321 320 320 320 320 320 316 314 310 307 304 305 306 306 305 306 304 302 299 298 298 297 296 295 296 292 290 287 285
128 130 131 132 126 118 114 127 106 79 65 62 54 167 219 214 212 198 103 64 53 57 40 34 17 7 359 351 345 339 337 337 334 325 323 332 331 325 320 317 320 319 313 305 306 306 308 312 313 318 320 319 319 318 315 314 312 312 322 324 320 314 313 310 307 305 309 310 309 307 307 304 302 304 307 308 306 301 301 300 299 297 297 297 291
141 141 139 133 126 133 138 128 115 105 105 117 169 198 231 207 175 91 72 67 76 28 43 23 10 354 347 335 334 336 332 336 338 340 339 335 330 325 324 324 327 324 318 314 312 314 312 311 319 323 316 313 316 316 314 312 314 319 319 315 314 311 306 300 299 303 302 299 294 295 298 304 308 310 308 308 307 304 304 302 303 300 296 298 293
134 134 132 129 133 130 126 120 128 115 135 162 202 196 178 322 46 353 261 176 135 127 110 323 313 289 300 319 334 333 334 333 332 330 331 334 337 337 337 334 327 319 317 319 319 316 314 325 323 320 324 326 324 319 321 325 323 320 315 319 317 312 313 330 324 319 313 307 307 305 305 309 308 308 311 307 308 308 305 306 299 297 298 294 283
139 143 141 140 133 122 123 131 139 152 163 169 158 73 21 62 77 109 339 340 190 204 117 104 327 354 1 333 335 329 324 314 321 329 333 338 340 339 335 331 329 326 326 329 333 331 331 323 323 327 329 333 332 335 333 332 329 327 327 330 325 323 330 327 319 315 312 311 305 304 313 312 313 314 313 314 313 311 309 308 305 305 302 296 290
145 144 149 155 152 148 145 145 158 159 170 152 130 108 68 15 46 54 45 30 40 43 45 44 26 10 4 316 315 330 322 323 331 337 339 341 340 341 340 338 336 335 336 340 347 340 333 331 330 331 335 333 333 333 332 329 329 328 325 323 326 331 330 325 323 321 318 311 313 316 317 316 314 314 314 315 312 312 311 306 302 303 295 294 289
156 162 157 155 151 153 153 156 158 157 135 116 117 109 101 83 15 20 27 20 33 66 65 33 12 6 0 352 342 312 332 339 341 341 342 343 345 347 347 346 346 345 349 353 343 336 338 334 332 336 338 337 336 334 329 328 327 327 325 327 328 330 330 326 324 319 313 313 321 324 318 315 315 317 315 311 311 311 311 310 310 308 300 310 325
153 154 156 153 155 159 161 162 157 136 139 133 126 120 105 106 88 36 349 16 62 52 25 10 5 4 2 3 0 355 351 346 345 346 347 349 350 352 353 357 355 355 360 0 347 339 337 338 339 336 336 331 327 329 329 327 327 325 325 324 323 324 323 319 319 313 313 324 323 316 317 319 318 315 312 313 315 316 316 314 315 313 323 0 27
158 160 162 165 159 161 165 153 138 138 140 137 134 128 133 123 137 132 95 2 352 353 347 4 7 8 13 17 8 2 356 353 353 353 354 355 357 359 4 2 360 3 7 359 351 344 341 339 335 332 333 327 324 325 326 327 326 322 320 320 316 314 312 313 317 319 321 324 320 318 321 321 320 317 316 316 319 317 320 323 322 325 355 14 45
148 151 154 157 154 153 143 139 138 137 147 138 136 137 133 147 151 155 158 156 139 316 306 316 339 15 28 17 5 6 2 0 360 1 0 360 1 5 7 3 3 356 359 354 352 340 340 339 334 331 331 329 327 327 324 324 326 326 325 321 319 318 319 321 319 319 320 320 318 323 326 323 320 322 320 321 322 325 328 328 337 358 10 30 43
144 149 158 157 153 147 142 135 151 160 150 146 144 137 142 149 152 173 176 176 180 187 253 286 284 335 17 16 11 8 7 5 6 5 3 2 4 10 8 359 354 348 344 341 341 335 332 330 332 323 323 321 322 320 320 318 322 322 322 322 321 323 320 316 317 318 321 317 323 327 325 323 324 323 320 322 326 330 334 345 1 10 23 34 38
158 164 162 162 155 137 142 153 165 160 145 141 134 138 147 163 174 177 178 183 187 194 177 257 313 333 2 6 8 5 7 7 7 6 3 3 5 12 6 357 342 337 336 336 334 330 330 327 325 317 317 319 316 315 313 312 313 316 318 318 317 317 316 316 318 321 320 321 321 322 324 324 324 325 328 326 329 335 346 358 5 23 27 46 48
169 163 158 138 127 148 161 168 165 153 145 144 145 149 157 169 184 187 183 188 174 161 174 208 145 52 18 335 354 357 4 360 2 3 3 3 2 3 357 343 342 336 334 328 332 327 323 320 320 319 316 317 315 315 310 307 308 312 317 319 320 315 318 318 322 319 319 320 319 322 322 325 327 327 330 331 334 341 351 1 9 19 24 30 25
142 157 155 156 165 165 170 162 157 150 153 146 154 155 176 183 191 186 186 174 167 172 164 154 143 100 1 352 347 343 15 2 10 359 352 344 344 339 335 334 334 333 330 326 323 325 319 319 317 319 315 315 312 311 311 309 312 312 318 321 322 323 327 326 321 326 325 320 319 318 323 324 324 328 334 335 339 347 356 5 14 18 29 31 38
167 161 167 170 169 172 170 163 156 153 158 152 166 167 182 188 190 189 183 165 178 172 161 140 124 177 292 53 339 14 41 6 355 337 325 322 324 327 330 333 335 329 327 322 321 320 319 315 316 316 315 314 312 310 311 312 313 314 317 321 323 323 325 326 325 323 316 316 317 317 322 326 327 325 330 341 342 351 1 14 18 30 40 57 60
129 162 169 177 173 165 160 161 163 162 159 157 167 167 182 192 192 183 180 180 182 165 166 165 182 236 223 356 4 14 79 31 327 308 296 301 304 312 317 322 319 319 315 317 316 316 314 315 314 314 313 314 314 312 313 314 314 315 318 321 321 319 321 323 325 324 317 314 314 320 323 325 328 333 336 343 352 359 13 26 31 38 43 49 52
163 161 169 169 170 164 164 172 169 161 157 164 171 174 186 189 183 178 184 185 180 170 167 190 222 213 299 348 2 359 39 29 293 283 285 294 293 294 299 303 297 293 297 301 308 310 313 312 312 314 314 315 316 316 316 316 318 319 320 321 324 322 320 325 326 326 323 313 315 319 324 328 330 332 335 340 348 358 18 25 31 36 44 49 49
153 160 160 166 171 173 178 174 162 160 171 175 183 183 185 182 183 187 185 183 180 174 176 197 251 223 296 324 345 345 33 290 264 277 280 281 284 290 289 285 285 282 280 279 282 285 294 300 303 304 305 307 308 311 312 311 315 318 320 320 322 322 322 320 322 323 321 318 319 322 324 327 332 333 338 345 350 3 14 23 30 42 43 50 48
151 152 149 161 161 173 169 164 166 176 178 180 180 182 179 176 180 183 183 194 188 190 176 198 207 236 274 311 359 14 279 263 261 263 268 282 286 285 283 279 284 286 290 287 286 287 294 297 298 299 299 299 301 303 304 307 313 316 319 320 322 324 325 323 323 321 319 317 320 322 325 327 331 335 337 345 347 360 8 18 27 41 51 53 55
158 154 147 154 169 177 183 179 180 181 182 179 180 186 180 173 179 190 186 193 200 191 193 196 193 200 223 263 259 249 255 253 262 266 275 270 275 276 280 284 283 288 290 296 294 300 299 300 300 303 307 306 306 305 306 305 306 308 312 318 318 321 324 326 323 315 309 314 317 319 323 327 331 333 337 340 352 358 7 14 19 47 55 51 61
160 153 149 159 164 175 184 195 193 193 188 179 179 186 189 178 183 184 192 194 196 197 203 205 203 202 207 225 238 239 247 249 256 254 261 268 268 272 272 279 283 285 284 286 294 301 300 300 304 305 307 307 309 307 306 302 301 301 307 311 313 312 314 319 320 318 320 322 317 317 321 324 328 331 335 341 347 3 7 15 22 30 41 56 64
156 149 150 151 161 173 179 190 197 205 197 187 185 188 194 193 188 192 195 194 198 204 198 206 199 212 216 222 227 241 242 242 252 263 265 263 266 267 274 281 289 293 291 293 292 296 300 303 302 300 300 301 303 304 305 304 302 302 303 310 313 318 322 327 326 324 322 319 317 317 322 322 327 329 335 341 348 359 11 21 19 34 31 42 48
158 149 150 154 165 171 175 180 205 209 202 195 190 192 192 191 191 194 198 208 204 202 204 209 208 216 218 229 229 232 238 241 251 254 261 260 263 264 271 275 282 284 293 296 300 298 299 299 299 300 299 300 302 304 304 306 304 305 302 310 318 324 330 334 330 329 329 325 319 320 320 322 323 330 336 343 350 353 8 11 14 24 36 44 51
161 160 155 162 173 174 173 183 200 211 209 196 191 188 190 190 199 204 209 209 207 210 203 214 223 219 219 228 228 232 233 240 247 254 255 257 258 262 263 266 272 278 283 288 293 301 301 300 298 296 295 296 297 299 303 305 307 306 306 303 324 332 335 339 337 333 333 331 324 323 323 322 325 329 336 342 348 355 8 14 23 22 34 43 57
157 154 148 163 175 177 166 172 192 209 210 196 187 189 191 193 205 210 214 218 226 224 223 218 221 221 217 229 230 231 230 238 243 247 248 253 253 256 260 266 268 270 271 277 286 293 299 297 297 294 295 294 295 295 298 301 303 305 304 312 330 332 336 340 339 337 341 336 329 323 324 325 326 327 333 339 345 359 11 16 21 38 44 55 58
158 166 163 171 175 167 161 168 183 199 203 201 189 183 191 202 213 216 215 218 223 226 223 222 226 226 226 223 227 230 236 240 241 242 245 247 250 256 261 267 272 276 277 277 282 287 291 296 294 294 296 295 296 294 297 297 300 299 305 316 325 328 336 343 339 338 340 343 331 329 329 332 332 334 337 343 348 2 11 18 28 38 56 67 77